Location: ?????????
(41.2286°N, 23.0068°E)
Time: 08:48:48
(UTC+00:00)

PAYLOAD A - Pass Details

Date: 08 November 2025
Orbit: 690 x 828 km, 98.6° (Epoch: 04 December)

Event Time Altitude Azimuth Distance (km) Brightness Sun altitude
Rises 02:30:26 0° 15° (NNE) 3,376 7.6 -29.8°
Reaches altitude 10° 02:32:50 10° 18° (NNE) 2,433 6.8 -29.3°
Maximum altitude 02:38:14 71° 102° (ESE) 862 4.3 -28.3°
Enters shadow 02:40:25 36° 177° (S) 1,255 5.0 -27.9°
